Location: Nied?wied?
(53.3665°N, 14.8184°E)
Time: 23:26:03
(UTC+00:00)

Cosmos 1500 - Pass Details

Date: 03 March 2021
Orbit: 499 x 517 km, 82.5° (Epoch: 12 April)

Event Time Altitude Azimuth Distance (km) Brightness Sun altitude
Rises 18:48:57 0° 207° (SSW) 2,584 6.9 -19.5°
Reaches altitude 10° 18:51:09 10° 215° (SW) 1,704 6.0 -19.8°
Maximum altitude 18:54:42 42° 287° (WNW) 733 4.4 -20.3°
Drops below altitude 10° 18:58:18 10° 359° (N) 1,720 6.1 -20.8°
Sets 19:00:31 0° 7° (N) 2,611 6.9 -21.1°
